Location: Newark
(45.6439°N, 0.5436°E)
Time: 08:26:29
(UTC+00:00)

N. Korean satellite - Pass Details

Date: 27 November 2019
Orbit: 456 x 506 km, 97.2° (Epoch: 05 December)

Event Time Altitude Azimuth Distance (km) Brightness Sun altitude
Rises 05:50:37 0° 13° (NNE) 2,600 10.2 -14.0°
Reaches altitude 10° 05:52:44 10° 14° (NNE) 1,705 9.3 -13.6°
Maximum altitude 05:56:24 79° 101° (E) 505 6.7 -13.0°
Drops below altitude 10° 05:59:59 10° 190° (S) 1,662 9.4 -12.4°
Sets 06:02:01 0° 191° (S) 2,528 10.3 -12.1°
